Location: Peach Mountain Observatory
(42.3967°N, 83.9367°W)
Time: 06:18:12
(UTC-05:00)

S-56A Canister/Altair - Pass Details

Date: 30 January 2020
Orbit: 633 x 2500 km, 38.9° (Epoch: 25 February)

Event Time Altitude Azimuth Distance (km) Brightness Sun altitude
Rises 18:44:33 0° 234° (SW) 5,124 13.2 -11.0°
Reaches altitude 10° 18:48:33 10° 229° (SW) 3,825 12.1 -11.7°
Maximum altitude 18:57:15 44° 162° (SSE) 1,568 9.0 -13.2°
Enters shadow 19:01:51 18° 97° (E) 2,210 9.3 -14.1°
Drops below altitude 10° 19:03:10 10° 91° (E) 2,610 - -14.3°
Sets 19:05:25 0° 84° (E) 3,380 - -14.7°
